Preview of NWS' New Version of Forecast
This preview is not operational and should not be used for support decisions.

Regional Weather Roundup (RWR)

Issued by National Weather Service (NWS)

                            
000
ASUS43 KLSX 160307
RWRMO 

WEATHER SUMMARY FOR MISSOURI
NATIONAL WEATHER SERVICE SPRINGFIELD MO
1000 PM CDT SUN SEP 15 2019

NOTE: "FAIR" INDICATES FEW OR NO CLOUDS BELOW 12,000 FEET WITH NO
       SIGNIFICANT WEATHER AND/OR OBSTRUCTIONS TO VISIBILITY.
       CURRENT SKY AND/OR WEATHER CONDITIONS ARE NOT AVAILABLE FOR
       CHILLICOTHE AND FARMINGTON.

MOZ001>031-035>038-043-044-053-054-160400-
...NORTHERN AND WESTERN MISSOURI...
  
CITY           SKY/WX    TMP DP  RH WIND       PRES   REMARKS
KANSAS CTY INT CLEAR     73  69  87 S8        30.03R                  
KANSAS C DTWN  CLEAR     83  70  64 S8        30.01R                  
LEE'S SUMMIT   CLEAR     81  70  69 S12       30.04R                  
ST JOSEPH      CLEAR     75  72  90 CALM      30.00R                  
CHILLICOTHE      N/A     75  74  96 CALM      30.03R                  
KIRKSVILLE     CLEAR     71  70  96 CALM      30.04R                  
     
$$
MOZ066>068-077>081-088>096-101>105-160400-
...SOUTHWEST MISSOURI...
  
CITY           SKY/WX    TMP DP  RH WIND       PRES   REMARKS
SPRINGFIELD    CLEAR     74  67  78 CALM      30.09R                  
JOPLIN         CLEAR     76  71  85 SE3       30.08R                  
               
$$
MOZ032>034-039>042-045>050-055>058-069>072-160400-
...CENTRAL MISSOURI...  
  
CITY           SKY/WX    TMP DP  RH WIND       PRES   REMARKS
COLUMBIA       CLEAR     76  69  79 S8        30.05R                  
JEFFERSON CITY CLEAR     77  72  84 CALM      30.04R                  
ROLLA          CLEAR     73  66  78 SW5       30.09R                  
SEDALIA        CLEAR     77  71  82 SW9       30.06R                  
WHITEMAN AFB   PTCLDY    74  74 100 S8        30.01R                  
WARRENSBURG    CLEAR     73  70  88 S5        30.04R                  
OSAGE BEACH    CLEAR     74  71  91 CALM      30.08R                  
               
$$
MOZ051-052-059>065-160400-
...EAST CENTRAL MISSOURI...
  
CITY           SKY/WX    TMP DP  RH WIND       PRES   REMARKS
ST LOUIS INTL  PTCLDY    83  68  60 SW6       30.04R                  
SPIRIT OF STL  CLEAR     76  72  87 CALM      30.03R                  
ST CHARLES       N/A    N/A N/A N/A MISG      30.02R                  
                   
$$
MOZ072>076-082>087-097>100-106>115-160400-
...SOUTH CENTRAL AND SOUTHEAST MISSOURI...
  
CITY           SKY/WX    TMP DP  RH WIND       PRES   REMARKS
CAPE GIRARDEAU FAIR      73  68  84 CALM      30.06R                  
FARMINGTON     CLEAR     75  69  81 CALM      30.10R                  
POPLAR BLUFF   FAIR      73  69  87 CALM      30.06R                  
WEST PLAINS    CLEAR     76  66  71 CALM      30.12R                  
                                       
$$